status,avgMeasuredTime,avgSpeed,extID,medianMeasuredTime,TIMESTAMP,vehicleCount,_id,REPORT_ID
OK,44,60,926,44,2014-08-01T07:55:00,0,20746646,206184
OK,44,60,926,44,2014-08-01T08:00:00,0,20746981,206184
OK,44,60,926,44,2014-08-01T08:05:00,0,20747430,206184
OK,44,60,926,44,2014-08-01T08:10:00,0,20747803,206184
OK,44,60,926,44,2014-08-01T08:15:00,0,20748252,206184
OK,44,60,926,44,2014-08-01T08:20:00,0,20748701,206184
OK,44,60,926,44,2014-08-01T08:25:00,0,20749150,206184
OK,44,60,926,44,2014-08-01T08:30:00,0,20749599,206184
OK,44,60,926,44,2014-08-01T08:35:00,0,20750048,206184
OK,44,60,926,44,2014-08-01T08:40:00,0,20750497,206184
OK,44,60,926,44,2014-08-01T08:45:00,0,20750946,206184
OK,44,60,926,44,2014-08-01T08:50:00,0,20751395,206184
OK,44,60,926,44,2014-08-01T08:55:00,0,20751844,206184
OK,44,60,926,44,2014-08-01T09:00:00,0,20752293,206184
OK,44,60,926,44,2014-08-01T09:05:00,0,20752742,206184
OK,44,60,926,44,2014-08-01T09:10:00,0,20753191,206184
OK,44,60,926,44,2014-08-01T09:15:00,0,20753640,206184
OK,44,60,926,44,2014-08-01T09:20:00,0,20754089,206184
OK,44,60,926,44,2014-08-01T09:25:00,0,20754538,206184
OK,44,60,926,44,2014-08-01T09:30:00,0,20754987,206184
OK,44,60,926,44,2014-08-01T09:35:00,0,20755436,206184
OK,44,60,926,44,2014-08-01T09:40:00,0,20755885,206184
OK,44,60,926,44,2014-08-01T09:45:00,0,20756334,206184
OK,44,60,926,44,2014-08-01T09:50:00,0,20756783,206184
OK,44,60,926,44,2014-08-01T09:55:00,0,20757232,206184
OK,44,60,926,44,2014-08-01T10:00:00,0,20757681,206184
OK,44,60,926,44,2014-08-01T10:05:00,0,20758130,206184
OK,44,60,926,44,2014-08-01T10:10:00,0,20758579,206184
OK,44,60,926,44,2014-08-01T10:15:00,0,20759028,206184
OK,44,60,926,44,2014-08-01T10:20:00,0,20759477,206184
OK,44,60,926,44,2014-08-01T10:25:00,0,20759926,206184
OK,204,13,926,204,2014-08-01T10:30:00,2,20760375,206184
OK,204,13,926,204,2014-08-01T10:35:00,2,20760824,206184
OK,205,12,926,205,2014-08-01T10:40:00,0,20761273,206184
OK,205,12,926,205,2014-08-01T10:45:00,0,20761722,206184
OK,205,12,926,205,2014-08-01T10:50:00,0,20762171,206184
OK,205,12,926,205,2014-08-01T10:55:00,0,20762620,206184
OK,205,12,926,205,2014-08-01T11:00:00,0,20763069,206184
OK,205,12,926,205,2014-08-01T11:05:00,0,20763518,206184
OK,205,12,926,205,2014-08-01T11:10:00,0,20763967,206184
OK,205,12,926,205,2014-08-01T11:15:00,0,20764415,206184
OK,205,12,926,205,2014-08-01T11:20:00,0,20764864,206184
OK,91,29,926,91,2014-08-01T11:25:00,1,20765313,206184
OK,91,29,926,91,2014-08-01T11:30:00,1,20765762,206184
OK,91,29,926,91,2014-08-01T11:35:00,0,20766211,206184
OK,91,29,926,91,2014-08-01T11:40:00,0,20766660,206184
OK,146,18,926,146,2014-08-01T11:45:00,1,20767109,206184
OK,146,18,926,146,2014-08-01T11:50:00,1,20767558,206184
OK,146,18,926,146,2014-08-01T11:55:00,0,20768007,206184
OK,146,18,926,146,2014-08-01T12:00:00,0,20768456,206184
OK,146,18,926,146,2014-08-01T12:05:00,0,20768905,206184
OK,146,18,926,146,2014-08-01T12:10:00,0,20769354,206184
OK,146,18,926,146,2014-08-01T12:15:00,0,20769803,206184
OK,146,18,926,146,2014-08-01T12:20:00,0,20770252,206184
OK,142,18,926,142,2014-08-01T12:25:00,1,20770701,206184
OK,142,18,926,142,2014-08-01T12:30:00,1,20771150,206184
OK,142,18,926,142,2014-08-01T12:35:00,0,20771599,206184
OK,142,18,926,142,2014-08-01T12:40:00,0,20772048,206184
OK,142,18,926,142,2014-08-01T12:45:00,0,20772497,206184
OK,142,18,926,142,2014-08-01T12:50:00,0,20772946,206184
OK,142,18,926,142,2014-08-01T12:55:00,0,20773395,206184
OK,142,18,926,142,2014-08-01T13:00:00,0,20773844,206184
OK,142,18,926,142,2014-08-01T13:05:00,0,20774293,206184
OK,142,18,926,142,2014-08-01T13:10:00,0,20774742,206184
OK,142,18,926,142,2014-08-01T13:15:00,0,20775191,206184
OK,142,18,926,142,2014-08-01T13:20:00,0,20775640,206184
OK,142,18,926,142,2014-08-01T13:25:00,0,20776089,206184
OK,142,18,926,142,2014-08-01T13:30:00,0,20776538,206184
OK,142,18,926,142,2014-08-01T13:35:00,0,20776987,206184
OK,142,18,926,142,2014-08-01T13:40:00,0,20777436,206184
OK,142,18,926,142,2014-08-01T13:45:00,0,20777885,206184
OK,142,18,926,142,2014-08-01T13:50:00,0,20778334,206184
OK,142,18,926,142,2014-08-01T13:55:00,0,20778783,206184
OK,142,18,926,142,2014-08-01T14:00:00,0,20779232,206184
OK,142,18,926,142,2014-08-01T14:05:00,0,20779681,206184
OK,142,18,926,142,2014-08-01T14:10:00,0,20780130,206184
OK,142,18,926,142,2014-08-01T14:15:00,0,20780579,206184
OK,142,18,926,142,2014-08-01T14:20:00,0,20781028,206184
OK,142,18,926,142,2014-08-01T14:25:00,0,20781477,206184
OK,142,18,926,142,2014-08-01T14:30:00,0,20781926,206184
OK,142,18,926,142,2014-08-01T14:35:00,0,20782375,206184
OK,142,18,926,142,2014-08-01T14:40:00,0,20782824,206184
OK,142,18,926,142,2014-08-01T14:45:00,0,20783273,206184
OK,142,18,926,142,2014-08-01T14:50:00,0,20783722,206184
OK,142,18,926,142,2014-08-01T14:55:00,0,20784171,206184
OK,142,18,926,142,2014-08-01T15:00:00,0,20784620,206184
OK,142,18,926,142,2014-08-01T15:05:00,0,20785069,206184
OK,142,18,926,142,2014-08-01T15:10:00,0,20785518,206184
OK,142,18,926,142,2014-08-01T15:15:00,0,20785967,206184
OK,142,18,926,142,2014-08-01T15:20:00,0,20786416,206184
OK,142,18,926,142,2014-08-01T15:25:00,0,20786865,206184
OK,142,18,926,142,2014-08-01T15:30:00,0,20787314,206184
OK,142,18,926,142,2014-08-01T15:35:00,0,20787763,206184
OK,142,18,926,142,2014-08-01T15:40:00,0,20788212,206184
OK,142,18,926,142,2014-08-01T15:45:00,0,20788661,206184
OK,142,18,926,142,2014-08-01T15:50:00,0,20789110,206184
OK,142,18,926,142,2014-08-01T15:55:00,0,20789559,206184
OK,142,18,926,142,2014-08-01T16:00:00,0,20790008,206184
OK,142,18,926,142,2014-08-01T16:05:00,0,20790457,206184
OK,142,18,926,142,2014-08-01T16:10:00,0,20790906,206184
OK,142,18,926,142,2014-08-01T16:15:00,0,20791355,206184
OK,142,18,926,142,2014-08-01T16:20:00,0,20791804,206184
OK,142,18,926,142,2014-08-01T16:25:00,0,20792253,206184
OK,142,18,926,142,2014-08-01T16:30:00,0,20792702,206184
OK,142,18,926,142,2014-08-01T16:35:00,0,20793151,206184
OK,142,18,926,142,2014-08-01T16:40:00,0,20793600,206184
OK,142,18,926,142,2014-08-01T16:45:00,0,20794049,206184
OK,142,18,926,142,2014-08-01T16:50:00,0,20794498,206184
OK,142,18,926,142,2014-08-01T16:55:00,0,20794947,206184
OK,142,18,926,142,2014-08-01T17:00:00,0,20795396,206184
OK,142,18,926,142,2014-08-01T17:05:00,0,20795845,206184
OK,142,18,926,142,2014-08-01T17:10:00,0,20796294,206184
OK,142,18,926,142,2014-08-01T17:15:00,0,20796743,206184
OK,142,18,926,142,2014-08-01T17:20:00,0,20797192,206184
OK,142,18,926,142,2014-08-01T17:25:00,0,20797641,206184
OK,142,18,926,142,2014-08-01T17:30:00,0,20798090,206184
OK,142,18,926,142,2014-08-01T17:35:00,0,20798539,206184
OK,142,18,926,142,2014-08-01T17:40:00,0,20798988,206184
OK,142,18,926,142,2014-08-01T17:45:00,0,20799437,206184
OK,142,18,926,142,2014-08-01T17:50:00,0,20799886,206184
OK,142,18,926,142,2014-08-01T17:55:00,0,20800335,206184
OK,142,18,926,142,2014-08-01T18:00:00,0,20800784,206184
OK,142,18,926,142,2014-08-01T18:05:00,0,20801233,206184
OK,142,18,926,142,2014-08-01T18:10:00,0,20801682,206184
OK,142,18,926,142,2014-08-01T18:15:00,0,20802131,206184
OK,142,18,926,142,2014-08-01T18:20:00,0,20802580,206184
OK,142,18,926,142,2014-08-01T18:25:00,0,20803029,206184
OK,142,18,926,142,2014-08-01T18:30:00,0,20803478,206184
OK,142,18,926,142,2014-08-01T18:35:00,0,20803927,206184
OK,142,18,926,142,2014-08-01T18:40:00,0,20804376,206184
OK,142,18,926,142,2014-08-01T18:45:00,0,20804825,206184
OK,142,18,926,142,2014-08-01T18:50:00,0,20805274,206184
OK,142,18,926,142,2014-08-01T18:55:00,0,20805723,206184
OK,142,18,926,142,2014-08-01T19:00:00,0,20806172,206184
OK,142,18,926,142,2014-08-01T19:05:00,0,20806621,206184
OK,142,18,926,142,2014-08-01T19:10:00,0,20807070,206184
OK,142,18,926,142,2014-08-01T19:15:00,0,20807519,206184
OK,142,18,926,142,2014-08-01T19:20:00,0,20807968,206184
OK,142,18,926,142,2014-08-01T19:25:00,0,20808417,206184
OK,142,18,926,142,2014-08-01T19:30:00,0,20808866,206184
OK,142,18,926,142,2014-08-01T19:35:00,0,20809315,206184
OK,142,18,926,142,2014-08-01T19:40:00,0,20809764,206184
OK,142,18,926,142,2014-08-01T19:45:00,0,20810213,206184
OK,142,18,926,142,2014-08-01T19:50:00,0,20810662,206184
OK,142,18,926,142,2014-08-01T19:55:00,0,20811111,206184
OK,142,18,926,142,2014-08-01T22:00:00,0,20816840,206184
OK,142,18,926,142,2014-08-01T22:05:00,0,20817285,206184
OK,142,18,926,142,2014-08-02T00:00:00,0,20823279,206184
OK,142,18,926,142,2014-08-02T00:05:00,0,20823728,206184
OK,142,18,926,142,2014-08-02T00:10:00,0,20824177,206184
OK,142,18,926,142,2014-08-02T00:15:00,0,20824626,206184
OK,142,18,926,142,2014-08-02T00:20:00,0,20825075,206184
OK,142,18,926,142,2014-08-02T00:25:00,0,20825524,206184
OK,142,18,926,142,2014-08-02T00:30:00,0,20825973,206184
OK,142,18,926,142,2014-08-02T00:35:00,0,20826422,206184
OK,142,18,926,142,2014-08-02T00:40:00,0,20826871,206184
OK,142,18,926,142,2014-08-02T00:45:00,0,20827320,206184
OK,142,18,926,142,2014-08-02T00:50:00,0,20827769,206184
OK,142,18,926,142,2014-08-02T00:55:00,0,20828218,206184
OK,142,18,926,142,2014-08-02T01:00:00,0,20828667,206184
OK,142,18,926,142,2014-08-02T01:05:00,0,20829116,206184
OK,142,18,926,142,2014-08-02T01:10:00,0,20829565,206184
OK,142,18,926,142,2014-08-02T01:15:00,0,20830014,206184
OK,142,18,926,142,2014-08-02T01:20:00,0,20830463,206184
OK,142,18,926,142,2014-08-02T01:25:00,0,20830912,206184
OK,142,18,926,142,2014-08-02T01:30:00,0,20831361,206184
OK,142,18,926,142,2014-08-02T01:35:00,0,20831810,206184
OK,142,18,926,142,2014-08-02T01:40:00,0,20832259,206184
OK,142,18,926,142,2014-08-02T01:45:00,0,20832708,206184
OK,142,18,926,142,2014-08-02T01:50:00,0,20833157,206184
OK,142,18,926,142,2014-08-02T01:55:00,0,20833606,206184
OK,142,18,926,142,2014-08-02T02:00:00,0,20834055,206184
OK,142,18,926,142,2014-08-02T02:05:00,0,20834504,206184
OK,142,18,926,142,2014-08-02T02:10:00,0,20834953,206184
OK,142,18,926,142,2014-08-02T02:15:00,0,20835402,206184
OK,142,18,926,142,2014-08-02T02:20:00,0,20835851,206184
OK,142,18,926,142,2014-08-02T02:25:00,0,20836300,206184
OK,142,18,926,142,2014-08-02T02:30:00,0,20836749,206184
OK,142,18,926,142,2014-08-02T02:35:00,0,20837198,206184
OK,142,18,926,142,2014-08-02T02:40:00,0,20837647,206184
OK,142,18,926,142,2014-08-02T02:45:00,0,20838096,206184
OK,142,18,926,142,2014-08-02T02:50:00,0,20838545,206184
OK,142,18,926,142,2014-08-02T02:55:00,0,20838994,206184
OK,142,18,926,142,2014-08-02T03:00:00,0,20839443,206184
OK,142,18,926,142,2014-08-02T03:05:00,0,20839892,206184
OK,142,18,926,142,2014-08-02T03:10:00,0,20840341,206184
OK,142,18,926,142,2014-08-02T03:15:00,0,20840790,206184
OK,142,18,926,142,2014-08-02T03:20:00,0,20841239,206184
OK,142,18,926,142,2014-08-02T03:25:00,0,20841688,206184
OK,142,18,926,142,2014-08-02T03:30:00,0,20842137,206184
OK,142,18,926,142,2014-08-02T03:35:00,0,20842586,206184
OK,142,18,926,142,2014-08-02T03:40:00,0,20843035,206184
OK,142,18,926,142,2014-08-02T03:45:00,0,20843484,206184
OK,142,18,926,142,2014-08-02T03:50:00,0,20843933,206184
OK,142,18,926,142,2014-08-02T03:55:00,0,20844382,206184
OK,142,18,926,142,2014-08-02T06:00:00,0,20851836,206184
OK,142,18,926,142,2014-08-02T06:05:00,0,20852285,206184
OK,142,18,926,142,2014-08-02T06:10:00,0,20852734,206184
OK,142,18,926,142,2014-08-02T06:15:00,0,20853183,206184
OK,142,18,926,142,2014-08-02T06:20:00,0,20853632,206184
OK,142,18,926,142,2014-08-02T06:25:00,0,20854081,206184
OK,142,18,926,142,2014-08-02T06:30:00,0,20854530,206184
OK,142,18,926,142,2014-08-02T06:35:00,0,20854979,206184
OK,142,18,926,142,2014-08-02T06:40:00,0,20855428,206184
OK,142,18,926,142,2014-08-02T06:45:00,0,20855877,206184
OK,142,18,926,142,2014-08-02T06:50:00,0,20856326,206184
OK,142,18,926,142,2014-08-02T06:55:00,0,20856775,206184
OK,142,18,926,142,2014-08-02T07:00:00,0,20857224,206184
OK,142,18,926,142,2014-08-02T07:05:00,0,20857673,206184
OK,142,18,926,142,2014-08-02T07:10:00,0,20858122,206184
OK,142,18,926,142,2014-08-02T07:15:00,0,20858571,206184
OK,142,18,926,142,2014-08-02T07:20:00,0,20859020,206184
OK,142,18,926,142,2014-08-02T07:25:00,0,20859469,206184
OK,142,18,926,142,2014-08-02T07:30:00,0,20859918,206184
OK,142,18,926,142,2014-08-02T07:35:00,0,20860367,206184
OK,142,18,926,142,2014-08-02T07:40:00,0,20860816,206184
OK,142,18,926,142,2014-08-02T07:45:00,0,20861265,206184
OK,142,18,926,142,2014-08-02T07:50:00,0,20861714,206184
OK,142,18,926,142,2014-08-02T07:55:00,0,20862163,206184
OK,142,18,926,142,2014-08-02T08:00:00,0,20862612,206184
OK,142,18,926,142,2014-08-02T08:05:00,0,20863061,206184
OK,142,18,926,142,2014-08-02T08:10:00,0,20863510,206184
OK,142,18,926,142,2014-08-02T08:15:00,0,20863959,206184
OK,142,18,926,142,2014-08-02T08:20:00,0,20864408,206184
OK,142,18,926,142,2014-08-02T08:25:00,0,20864857,206184
OK,142,18,926,142,2014-08-02T08:30:00,0,20865306,206184
OK,142,18,926,142,2014-08-02T08:35:00,0,20865755,206184
OK,142,18,926,142,2014-08-02T08:40:00,0,20866204,206184
OK,142,18,926,142,2014-08-02T08:45:00,0,20866653,206184
OK,142,18,926,142,2014-08-02T08:50:00,0,20867102,206184
OK,130,20,926,130,2014-08-02T08:55:00,1,20867551,206184
OK,130,20,926,130,2014-08-02T09:00:00,0,20868000,206184
OK,130,20,926,130,2014-08-02T09:05:00,0,20868449,206184
OK,130,20,926,130,2014-08-02T09:10:00,0,20868898,206184
OK,130,20,926,130,2014-08-02T09:15:00,0,20869347,206184
OK,130,20,926,130,2014-08-02T09:20:00,0,20869796,206184
OK,130,20,926,130,2014-08-02T09:25:00,0,20870245,206184
OK,130,20,926,130,2014-08-02T09:30:00,0,20870694,206184
OK,130,20,926,130,2014-08-02T09:35:00,0,20871143,206184
OK,130,20,926,130,2014-08-02T09:40:00,0,20871592,206184
OK,130,20,926,130,2014-08-02T09:45:00,0,20872041,206184
OK,130,20,926,130,2014-08-02T09:50:00,0,20872490,206184
OK,130,20,926,130,2014-08-02T09:55:00,0,20872939,206184
OK,130,20,926,130,2014-08-02T10:00:00,0,20873388,206184
OK,130,20,926,130,2014-08-02T10:05:00,0,20873837,206184
OK,130,20,926,130,2014-08-02T10:10:00,0,20874286,206184
OK,130,20,926,130,2014-08-02T10:15:00,0,20874735,206184
OK,130,20,926,130,2014-08-02T10:20:00,0,20875184,206184
OK,130,20,926,130,2014-08-02T10:25:00,0,20875633,206184
OK,102,26,926,102,2014-08-02T10:30:00,1,20876082,206184
OK,102,26,926,102,2014-08-02T10:35:00,1,20876531,206184
OK,102,26,926,102,2014-08-02T10:40:00,0,20876980,206184
OK,102,26,926,102,2014-08-02T10:45:00,0,20877429,206184
OK,102,26,926,102,2014-08-02T10:50:00,0,20877878,206184
OK,102,26,926,102,2014-08-02T10:55:00,0,20878327,206184
OK,102,26,926,102,2014-08-02T11:00:00,0,20878776,206184
OK,102,26,926,102,2014-08-02T11:05:00,0,20879225,206184
OK,102,26,926,102,2014-08-02T11:10:00,0,20879674,206184
OK,133,20,926,133,2014-08-02T11:15:00,1,20880123,206184
OK,133,20,926,133,2014-08-02T11:20:00,1,20880572,206184
OK,133,20,926,133,2014-08-02T11:25:00,0,20881021,206184
OK,133,20,926,133,2014-08-02T11:30:00,0,20881470,206184
OK,133,20,926,133,2014-08-02T11:35:00,0,20881919,206184
OK,133,20,926,133,2014-08-02T11:40:00,0,20882368,206184
OK,133,20,926,133,2014-08-02T11:45:00,0,20882817,206184
OK,133,20,926,133,2014-08-02T11:50:00,0,20883266,206184
OK,133,20,926,133,2014-08-02T11:55:00,0,20883715,206184
OK,133,20,926,133,2014-08-02T12:00:00,0,20884164,206184
OK,133,20,926,133,2014-08-02T12:05:00,0,20884613,206184
OK,133,20,926,133,2014-08-02T12:10:00,0,20885062,206184
OK,133,20,926,133,2014-08-02T12:15:00,0,20885511,206184
OK,133,20,926,133,2014-08-02T12:20:00,0,20885960,206184
OK,133,20,926,133,2014-08-02T12:25:00,0,20886409,206184
OK,133,20,926,133,2014-08-02T12:30:00,0,20886858,206184
OK,133,20,926,133,2014-08-02T12:35:00,0,20887307,206184
OK,133,20,926,133,2014-08-02T12:40:00,0,20887756,206184
OK,133,20,926,133,2014-08-02T12:45:00,0,20888205,206184
OK,133,20,926,133,2014-08-02T12:50:00,0,20888654,206184
OK,133,20,926,133,2014-08-02T12:55:00,0,20889103,206184
OK,133,20,926,133,2014-08-02T13:00:00,0,20889552,206184
OK,133,20,926,133,2014-08-02T13:05:00,0,20890001,206184
OK,133,20,926,133,2014-08-02T13:10:00,0,20890450,206184
OK,133,20,926,133,2014-08-02T13:15:00,0,20890899,206184
OK,133,20,926,133,2014-08-02T13:20:00,0,20891348,206184
OK,133,20,926,133,2014-08-02T13:25:00,0,20891797,206184
OK,133,20,926,133,2014-08-02T13:30:00,0,20892246,206184
OK,133,20,926,133,2014-08-02T13:35:00,0,20892695,206184
OK,133,20,926,133,2014-08-02T13:40:00,0,20893144,206184
OK,133,20,926,133,2014-08-02T13:45:00,0,20893593,206184
OK,133,20,926,133,2014-08-02T13:50:00,0,20894042,206184
OK,133,20,926,133,2014-08-02T13:55:00,0,20894491,206184
OK,133,20,926,133,2014-08-02T14:00:00,0,20894940,206184
OK,133,20,926,133,2014-08-02T14:05:00,0,20895389,206184
OK,133,20,926,133,2014-08-02T14:10:00,0,20895838,206184
OK,133,20,926,133,2014-08-02T14:15:00,0,20896287,206184
OK,133,20,926,133,2014-08-02T14:20:00,0,20896736,206184
OK,133,20,926,133,2014-08-02T14:25:00,0,20897185,206184
OK,133,20,926,133,2014-08-02T14:30:00,0,20897634,206184
OK,133,20,926,133,2014-08-02T14:35:00,0,20898083,206184
OK,133,20,926,133,2014-08-02T14:40:00,0,20898532,206184
OK,133,20,926,133,2014-08-02T14:45:00,0,20898981,206184
OK,133,20,926,133,2014-08-02T14:50:00,0,20899430,206184
OK,133,20,926,133,2014-08-02T14:55:00,0,20899879,206184
OK,133,20,926,133,2014-08-02T15:00:00,0,20900328,206184
OK,133,20,926,133,2014-08-02T15:05:00,0,20900777,206184
OK,133,20,926,133,2014-08-02T15:10:00,0,20901226,206184
OK,133,20,926,133,2014-08-02T15:15:00,0,20901675,206184
OK,133,20,926,133,2014-08-02T15:20:00,0,20902124,206184
OK,133,20,926,133,2014-08-02T15:25:00,0,20902573,206184
OK,133,20,926,133,2014-08-02T15:30:00,0,20903022,206184
OK,133,20,926,133,2014-08-02T15:35:00,0,20903471,206184
OK,133,20,926,133,2014-08-02T15:40:00,0,20903920,206184
OK,133,20,926,133,2014-08-02T15:45:00,0,20904369,206184
OK,133,20,926,133,2014-08-02T15:50:00,0,20904818,206184
OK,128,20,926,128,2014-08-02T15:55:00,2,20905267,206184
OK,128,20,926,128,2014-08-02T16:00:00,2,20905716,206184
OK,128,20,926,128,2014-08-02T16:05:00,0,20906165,206184
OK,128,20,926,128,2014-08-02T16:10:00,0,20906614,206184
OK,128,20,926,128,2014-08-02T16:15:00,0,20907063,206184
OK,128,20,926,128,2014-08-02T16:20:00,0,20907512,206184
OK,128,20,926,128,2014-08-02T16:25:00,0,20907961,206184
OK,128,20,926,128,2014-08-02T16:30:00,0,20908410,206184
OK,128,20,926,128,2014-08-02T16:35:00,0,20908859,206184
OK,132,20,926,132,2014-08-02T16:40:00,1,20909308,206184
OK,132,20,926,132,2014-08-02T16:45:00,1,20909757,206184
OK,132,20,926,132,2014-08-02T16:50:00,0,20910206,206184
OK,132,20,926,132,2014-08-02T16:55:00,0,20910655,206184
OK,132,20,926,132,2014-08-02T17:00:00,0,20911104,206184
OK,132,20,926,132,2014-08-02T17:05:00,0,20911553,206184
OK,132,20,926,132,2014-08-02T17:10:00,0,20912002,206184
OK,136,19,926,136,2014-08-02T17:15:00,1,20912451,206184
OK,136,19,926,136,2014-08-02T17:20:00,1,20912900,206184
OK,136,19,926,136,2014-08-02T17:25:00,0,20913349,206184
OK,136,19,926,136,2014-08-02T17:30:00,0,20913798,206184
OK,136,19,926,136,2014-08-02T17:35:00,0,20914247,206184
OK,136,19,926,136,2014-08-02T17:40:00,0,20914696,206184
OK,136,19,926,136,2014-08-02T17:45:00,0,20915145,206184
OK,136,19,926,136,2014-08-02T17:50:00,0,20915594,206184
OK,136,19,926,136,2014-08-02T17:55:00,0,20916043,206184
OK,136,19,926,136,2014-08-02T18:00:00,0,20916492,206184
OK,136,19,926,136,2014-08-02T18:05:00,0,20916941,206184
OK,136,19,926,136,2014-08-02T18:10:00,0,20917390,206184
OK,136,19,926,136,2014-08-02T18:15:00,0,20917839,206184
OK,136,19,926,136,2014-08-02T18:20:00,0,20918288,206184
OK,136,19,926,136,2014-08-02T18:25:00,0,20918737,206184
OK,136,19,926,136,2014-08-02T18:30:00,0,20919186,206184
OK,136,19,926,136,2014-08-02T18:35:00,0,20919635,206184
OK,136,19,926,136,2014-08-02T18:40:00,0,20920084,206184
OK,136,19,926,136,2014-08-02T18:45:00,0,20920533,206184
OK,136,19,926,136,2014-08-02T18:50:00,0,20920982,206184
OK,136,19,926,136,2014-08-02T18:55:00,0,20921431,206184
OK,136,19,926,136,2014-08-02T19:00:00,0,20921880,206184
OK,136,19,926,136,2014-08-02T19:05:00,0,20922329,206184
OK,136,19,926,136,2014-08-02T19:10:00,0,20922778,206184
OK,136,19,926,136,2014-08-02T19:15:00,0,20923227,206184
OK,136,19,926,136,2014-08-02T19:20:00,0,20923676,206184
OK,136,19,926,136,2014-08-02T19:25:00,0,20924125,206184
OK,136,19,926,136,2014-08-02T19:30:00,0,20924574,206184
OK,136,19,926,136,2014-08-02T19:35:00,0,20925023,206184
OK,136,19,926,136,2014-08-02T19:40:00,0,20925472,206184
OK,136,19,926,136,2014-08-02T19:45:00,0,20925921,206184
OK,136,19,926,136,2014-08-02T19:50:00,0,20926370,206184
OK,136,19,926,136,2014-08-02T19:55:00,0,20926819,206184
OK,136,19,926,136,2014-08-02T20:00:00,0,20927268,206184
OK,136,19,926,136,2014-08-02T20:05:00,0,20927717,206184
OK,136,19,926,136,2014-08-02T20:10:00,0,20928166,206184
OK,136,19,926,136,2014-08-02T20:15:00,0,20928615,206184
OK,136,19,926,136,2014-08-02T20:20:00,0,20929064,206184
OK,136,19,926,136,2014-08-02T20:25:00,0,20929513,206184
OK,136,19,926,136,2014-08-02T20:30:00,0,20929962,206184
OK,136,19,926,136,2014-08-02T20:35:00,0,20930411,206184
OK,136,19,926,136,2014-08-02T20:40:00,0,20930860,206184
OK,136,19,926,136,2014-08-02T20:45:00,0,20931309,206184
OK,136,19,926,136,2014-08-02T20:50:00,0,20931758,206184
OK,136,19,926,136,2014-08-02T20:55:00,0,20932207,206184
OK,136,19,926,136,2014-08-02T21:00:00,0,20932656,206184
OK,136,19,926,136,2014-08-02T21:05:00,0,20933105,206184
OK,136,19,926,136,2014-08-02T21:10:00,0,20933554,206184
OK,136,19,926,136,2014-08-02T21:15:00,0,20934003,206184
OK,136,19,926,136,2014-08-02T21:20:00,0,20934452,206184
OK,136,19,926,136,2014-08-02T21:25:00,0,20934901,206184
OK,136,19,926,136,2014-08-02T21:30:00,0,20935350,206184
OK,136,19,926,136,2014-08-02T21:35:00,0,20935799,206184
OK,136,19,926,136,2014-08-02T21:40:00,0,20936248,206184
OK,136,19,926,136,2014-08-02T21:45:00,0,20936697,206184
OK,136,19,926,136,2014-08-02T21:50:00,0,20937146,206184
OK,136,19,926,136,2014-08-02T21:55:00,0,20937595,206184
OK,136,19,926,136,2014-08-02T22:00:00,0,20938044,206184
OK,136,19,926,136,2014-08-02T22:05:00,0,20938493,206184
OK,136,19,926,136,2014-08-02T22:10:00,0,20938942,206184
OK,136,19,926,136,2014-08-02T22:15:00,0,20939391,206184
OK,136,19,926,136,2014-08-02T22:20:00,0,20939840,206184
OK,136,19,926,136,2014-08-02T22:25:00,0,20940289,206184
OK,136,19,926,136,2014-08-02T22:30:00,0,20940738,206184
OK,136,19,926,136,2014-08-02T22:35:00,0,20941187,206184
OK,136,19,926,136,2014-08-02T22:40:00,0,20941636,206184
OK,136,19,926,136,2014-08-02T22:45:00,0,20942085,206184
OK,136,19,926,136,2014-08-02T22:50:00,0,20942534,206184
OK,136,19,926,136,2014-08-02T22:55:00,0,20942983,206184
OK,136,19,926,136,2014-08-02T23:00:00,0,20943432,206184
OK,136,19,926,136,2014-08-02T23:10:00,0,20943881,206184
OK,136,19,926,136,2014-08-02T23:15:00,0,20944330,206184
OK,136,19,926,136,2014-08-02T23:20:00,0,20944779,206184
OK,136,19,926,136,2014-08-02T23:25:00,0,20945228,206184
OK,136,19,926,136,2014-08-02T23:30:00,0,20945677,206184
OK,136,19,926,136,2014-08-02T23:35:00,0,20946126,206184
OK,136,19,926,136,2014-08-02T23:40:00,0,20946575,206184
OK,136,19,926,136,2014-08-02T23:45:00,0,20947024,206184
OK,136,19,926,136,2014-08-02T23:50:00,0,20947473,206184
OK,136,19,926,136,2014-08-02T23:55:00,0,20947922,206184
OK,136,19,926,136,2014-08-03T00:00:00,0,20948371,206184
OK,136,19,926,136,2014-08-03T00:05:00,0,20948820,206184
OK,136,19,926,136,2014-08-03T00:10:00,0,20949268,206184
OK,136,19,926,136,2014-08-03T00:15:00,0,20949717,206184
OK,136,19,926,136,2014-08-03T00:20:00,0,20950166,206184
OK,136,19,926,136,2014-08-03T00:25:00,0,20950615,206184
OK,136,19,926,136,2014-08-03T00:30:00,0,20951064,206184
OK,136,19,926,136,2014-08-03T00:35:00,0,20951513,206184
OK,136,19,926,136,2014-08-03T00:40:00,0,20951962,206184
OK,136,19,926,136,2014-08-03T00:45:00,0,20952411,206184